Humidity-temperature Sensor

Selected Measurement Type: Relative Humidity

 
Relative Humidity [%]     6 entries per hour
Showing data from 5/23/2022 (00:00:00 Z) to 5/22/2022 (00:01:00 Z)
Previous Next [ Day | 3-Days | 7-Days ]
First Last
Prev [ Day | 3-Days | 7-Days ] Next
First Last

Start Time:     :
End Time:     :     
Time (in GMT) :00 :50 :40 :30 :20 :10
Previous Next [ Day | 3-Days | 7-Days ]
First Last
Prev [ Day | 3-Days | 7-Days ] Next
First Last


123 => good data
MM => data is determined as missing
-- => data not received/configured
Back to Top Back to Top
5/23/2022 00:00 to 23:10 89.05 87.04 84.68 84.37 83.98 83.71
5/22/2022 23:00 to 22:10 83.57 84.10 84.45 84.49 84.70 84.74
5/22/2022 22:00 to 21:10 84.53 84.84 85.33 84.98 85.21 85.11
5/22/2022 21:00 to 20:10 85.19 85.03 84.61 84.55 84.94 84.90
5/22/2022 20:00 to 19:10 84.68 84.72 84.57 84.35 84.02 83.65
5/22/2022 19:00 to 18:10 83.69 84.35 84.72 84.43 84.51 84.84
5/22/2022 18:00 to 17:10 85.42 85.74 86.34 86.90 87.14 86.87
5/22/2022 17:00 to 16:10 86.92 86.81 86.65 86.36 86.26 86.34
5/22/2022 16:00 to 15:10 86.36 86.11 86.07 86.59 86.81 87.68
5/22/2022 15:00 to 14:10 88.00 88.03 88.00 87.80 87.61 87.20
5/22/2022 14:00 to 13:10 87.16 87.39 87.72 88.46 89.26 89.03
5/22/2022 13:00 to 12:10 87.94 86.85 86.87 86.79 87.18 87.29
5/22/2022 12:00 to 11:10 87.74 86.90 86.90 86.59 86.53 86.32
5/22/2022 11:00 to 10:10 87.22 88.00 88.54 89.07 89.42 89.50
5/22/2022 10:00 to 9:10 89.59 89.67 89.40 89.46 89.73 90.16
5/22/2022 09:00 to 8:10 90.31 90.55 90.78 90.47 89.48 88.79
5/22/2022 08:00 to 7:10 88.89 89.38 89.69 90.00 89.34 87.49
5/22/2022 07:00 to 6:10 87.20 86.96 86.28 86.01 85.85 85.50
5/22/2022 06:00 to 5:10 85.00 84.96 85.05 84.76 84.18 84.49
5/22/2022 05:00 to 4:10 84.41 84.20 83.69 83.48 83.55 83.87
5/22/2022 04:00 to 3:10 84.37 85.17 85.25 84.78 84.92 85.00
5/22/2022 03:00 to 2:10 85.23 85.74 85.15 84.49 84.31 84.08
5/22/2022 02:00 to 1:10 84.51 84.78 85.00 85.09 84.94 85.15
5/22/2022 01:00 to 0:10 85.33 84.96 84.68 84.31 84.55 84.59